Starlink 30524

operational
NORAD ID: 57965 Int'l Des: 2023-151 Owner: SPXS Country: US Constellation: starlink
LEOCIRCULAR

Starlink 30524について

説明を読み込み中...

リアルタイム位置

3D地球を読み込み中...

次回通過

高度履歴

Altitude vs Time

uPlot chart will show altitude changes over time

軌道要素

1 57965U 23151B 25304.03445639 .00000110 00000-0 23226-4 0 9993
2 57965 43.0054 323.0120 0001223 264.9003 95.1700 15.02536969116234
Epoch: Oct 31, 2025 • Age: 13 hours

現在のステータス

高度 559.0 km
速度 7.59 km/s
衛星直下点 21.95°N, 139.23°W
打ち上げ日 Sep 30, 2023
運用期間 2 years
タイプ internet

技術仕様

分類 Payload
質量 730.00 kg
乾燥質量 700.00 kg
総質量 730.00 kg
長さ 0.30 m
直径 4.10 m
スパン 29.00 m
形状 Box + pan
製造者 SPXS
バスタイプ Starlink V2M
フェーズステータス In Orbit
所有者/国 SPXS/US

大規模コンステレーション

Loading constellations...